Probability
5 3 1 0 0 0 0 0 0 0 0 0 0 0 0 0 0 0 0 0 0 0 0 0 0 0 0 0 0 0 0 0 0 0 0 0 0 0 0 0 0 0 0
7 4 1 0 0 0 0 0 0 0 0 0 0 0 0 0 0 0 0 0 0 0 0 0 0 0 0 0 0 0 0 0 0 0 0 0 0 0 0 0 0 0 0
7 3 0 0 0 0 0 0 0 0 0 0 0 0 0 0 0 0 0 0 0 0 0 0 0 0 0 0 0 0 0 0 0 0 0 0 0 0 0 0 0 0 0
4 2 0 0 1 1 1 0 0 0 0 0 0 0 0 0 0 0 0 0 0 0 0 0 0 0 0 0 0 0 0 0 0 0 0 0 0 0 0 0 0 0 0
4 3 2 2 2 2 2 1 0 1 1 1 0 0 0 0 0 0 0 0 0 0 0 0 0 0 0 0 0 0 0 0 0 0 0 0 0 0 0 0 0 0 0
4 4 4 5 5 4 3 1 1 2 3 3 2 1 1 1 1 0 0 0 0 0 0 0 0 0 0 0 0 0 0 0 0 0 0 0 0 0 0 0 0 0 0
5 6 7 8 7 5 3 3 3 4 4 4 3 2 2 2 1 0 0 0 0 0 0 0 0 0 0 0 0 0 0 0 0 0 0 0 0 0 0 0 0 0 0
8 7 8 9 8 5 4 4 5 6 6 4 3 3 2 1 1 1 1 1 1 0 0 0 0 0 0 0 0 0 0 0 0 0 0 0 0 0 0 0 0 0 0
12 9 6 6 7 6 5 4 4 6 6 4 3 1 1 1 1 2 2 2 1 0 0 0 0 0 0 0 0 0 0 0 0 0 1 2 1 0 0 0 0 0 0
15 11 6 5 6 5 5 4 5 5 5 3 3 2 1 1 2 2 3 3 3 2 1 1 1 1 1 0 0 0 0 0 0 0 4 9 9 5 1 0 0 0 0
19 16 13 12 8 5 7 8 7 5 5 6 7 8 6 5 5 8 11 12 9 4 2 2 2 2 2 1 1 1 0 0 0 3 13 24 25 15 6 2 1 0 0
25 24 26 25 17 10 13 16 11 10 13 14 17 18 16 14 14 18 24 24 17 9 5 5 5 4 3 4 6 5 3 1 0 6 25 42 41 29 16 7 3 2 1
30 32 39 42 34 26 26 24 19 19 24 26 29 32 29 26 25 29 33 32 25 17 13 15 14 10 7 9 12 11 7 3 2 9 32 51 50 39 28 18 11 7 6
39 42 50 54 49 44 41 35 31 32 35 36 41 43 39 35 34 35 37 36 34 30 27 27 23 16 13 13 13 12 8 5 4 11 30 48 50 45 37 28 22 16 14
49 53 58 60 57 53 50 46 43 43 42 43 45 45 40 38 37 37 37 37 36 35 33 28 22 18 17 15 12 11 12 10 9 14 28 44 50 48 42 37 33 28 23
54 57 59 59 55 51 48 47 44 42 42 42 42 40 37 36 35 33 32 31 31 29 28 23 17 14 15 15 13 13 15 15 15 18 28 44 52 51 48 46 45 43 38
54 55 54 50 47 44 40 37 31 30 32 34 33 30 28 29 28 26 24 22 22 21 22 19 15 13 14 13 13 12 14 15 18 24 34 46 50 49 48 49 52 55 53
55 53 47 42 40 37 30 23 18 19 22 24 23 21 19 18 18 17 17 15 15 16 17 16 15 17 17 14 11 10 11 14 18 25 35 42 44 43 43 45 50 55 57
51 48 42 36 33 29 22 14 10 12 14 16 16 16 14 11 10 12 15 14 12 12 15 15 17 18 18 14 9 8 10 13 15 18 25 32 36 39 39 41 46 50 50
39 38 33 27 24 21 17 12 10 11 11 11 13 15 14 9 8 11 16 17 13 12 14 16 15 15 14 12 7 6 7 9 9 12 17 21 25 31 35 40 47 49 48
29 27 23 19 17 19 18 16 14 14 12 11 15 18 18 13 10 13 17 20 18 17 18 17 15 12 11 10 8 5 4 4 5 9 13 15 15 20 26 35 45 50 49
23 21 19 19 20 22 22 18 14 13 12 14 21 27 25 19 15 15 20 22 23 23 21 19 15 10 6 7 7 5 2 2 2 5 9 11 11 15 21 26 35 44 47
16 19 24 31 31 27 23 16 11 11 14 19 28 34 30 24 22 21 23 25 26 23 19 16 12 7 3 3 4 4 2 1 1 2 4 6 9 14 17 18 22 31 37
13 22 36 45 43 33 24 17 13 13 17 23 32 37 34 29 26 25 26 27 25 20 13 9 8 6 3 1 2 2 1 0 0 1 1 2 5 11 15 15 15 20 26
17 26 40 50 48 36 25 18 17 17 18 20 26 32 31 28 26 26 28 29 24 17 9 6 5 5 4 2 0 1 1 0 0 0 0 0 2 6 10 11 13 16 20
22 27 39 48 47 37 25 17 16 17 15 15 18 22 23 23 25 26 29 29 23 16 9 5 5 5 4 2 1 1 1 1 0 0 0 0 0 2 5 8 12 17 20
Wind_Speed
19 18 17 15 13 12 12 12 12 11 12 12 11 12 12 12 12 12 12 11 11 10 10 10 10 9 9 9 9 9 9 10 11 12 13 13 13 11 10 11 13 13 15
22 19 17 15 13 12 12 12 11 11 11 11 11 11 11 11 11 11 10 10 9 10 10 10 10 10 9 9 9 9 9 8 9 10 12 12 12 10 8 8 12 11 14
21 18 17 15 14 12 12 12 12 12 11 11 11 11 11 11 10 10 9 9 9 9 9 9 9 9 9 8 8 8 7 6 6 8 8 8 9 10 11 15 16 14 13
20 17 16 16 14 13 12 12 12 12 12 11 11 11 11 10 10 9 8 8 8 8 8 8 9 9 8 8 7 6 5 3 3 4 4 6 8 11 12 14 14 13 13
19 17 17 17 15 14 13 12 12 12 12 11 11 11 10 9 9 8 8 7 7 7 8 8 8 8 7 7 6 4 2 1 1 5 2 7 8 10 12 12 12 12 12
20 18 17 17 16 14 13 13 12 12 12 11 11 10 10 9 8 8 7 6 6 6 7 7 7 7 6 5 4 3 1 2 4 3 5 8 8 10 12 11 11 11 11
20 18 17 17 16 15 13 12 12 11 11 11 10 9 9 8 8 7 6 6 6 6 6 7 7 6 6 5 3 1 2 4 5 2 4 8 9 11 11 11 11 11 11
21 19 16 17 16 14 13 12 11 11 10 10 9 8 8 7 7 6 6 6 5 6 6 6 6 6 5 4 3 1 3 7 4 1 6 9 13 12 11 11 10 10 10
21 19 15 14 13 13 12 12 11 10 10 9 8 7 7 6 6 6 6 6 5 5 5 5 5 5 5 4 4 3 4 6 8 2 7 8 13 13 12 11 10 10 10
18 17 15 14 13 11 11 11 11 10 9 8 8 7 6 6 7 7 8 7 6 6 6 5 5 5 5 6 6 6 6 7 8 3 5 10 15 15 13 12 11 10 10
16 15 14 14 12 11 11 12 11 10 9 8 7 7 6 5 6 7 7 9 7 7 6 6 6 7 7 9 10 9 7 6 8 3 4 15 16 16 14 13 12 11 11
14 13 12 12 9 8 8 9 7 8 8 6 5 6 4 2 1 2 8 10 9 8 8 8 7 8 8 6 9 10 5 8 8 3 7 20 18 17 16 14 12 12 11
10 11 13 11 7 5 5 6 3 3 5 5 4 4 2 0 1 1 2 4 5 7 5 5 6 5 5 4 3 5 7 6 4 2 8 19 18 18 17 15 14 13 13
8 10 10 11 6 4 4 2 2 2 3 2 3 2 2 0 1 1 1 1 2 2 2 2 2 4 4 3 3 4 6 5 3 0 7 15 15 16 16 16 15 15 14
8 9 9 8 7 5 3 2 2 1 2 2 2 2 2 1 0 0 1 1 2 1 1 1 2 2 3 4 4 4 5 5 4 1 4 13 14 14 15 16 16 16 16
8 9 8 8 7 5 3 2 2 1 2 2 2 2 1 1 0 0 1 1 2 1 1 1 2 2 2 3 4 4 4 5 3 2 3 8 14 14 14 15 16 17 17
8 9 7 7 6 4 3 1 1 0 2 2 2 2 1 1 0 1 2 1 2 2 2 2 2 2 3 4 5 5 5 5 5 5 4 4 6 12 15 16 16 17 18
8 7 5 5 7 5 3 1 0 1 1 2 2 2 2 1 1 1 1 1 1 2 2 2 2 2 2 3 3 4 4 4 6 6 5 5 5 6 12 18 18 18 18
8 7 6 5 5 4 3 2 1 1 1 1 2 3 2 1 1 1 1 0 2 2 1 2 1 1 2 3 4 5 4 4 5 7 7 7 7 6 6 12 20 19 20
7 6 6 6 5 4 3 1 1 1 1 1 2 2 1 0 1 1 2 0 1 1 1 1 2 2 2 3 6 5 4 5 5 6 7 7 7 9 9 8 9 13 20
7 7 6 6 4 2 2 1 1 0 0 0 2 3 2 0 1 2 2 1 2 1 1 2 2 3 3 3 3 4 4 6 7 6 6 6 7 7 7 7 6 7 9
8 7 6 6 5 3 2 1 0 0 2 1 1 2 1 1 1 3 1 3 3 2 3 2 2 2 4 3 2 3 4 4 3 5 4 5 6 4 5 7 7 8 7
8 7 6 5 5 3 2 1 0 0 2 1 0 1 1 0 1 2 2 3 3 3 2 2 2 3 3 3 3 3 3 3 4 3 3 2 2 2 3 3 6 7 9
8 8 6 6 4 3 1 0 2 1 2 2 1 1 1 1 2 2 2 2 2 3 4 4 2 2 3 3 3 3 3 3 2 4 4 3 3 3 4 4 4 4 6
8 8 7 6 5 3 1 1 2 3 3 3 4 3 2 3 3 3 3 1 2 3 4 4 3 3 3 4 3 3 4 3 3 4 5 4 3 3 3 4 3 3 5
7 7 8 7 5 3 1 0 1 2 3 4 4 4 3 3 2 2 1 1 1 2 3 4 4 4 3 4 4 4 4 4 3 3 4 4 4 3 3 3 3 3 4
Wind_Direction
120 125 123 120 122 128 134 136 132 128 123 119 115 111 107 104 101 99 96 93 91 88 83 79 78 76 76 75 73 74 78 83 86 89 91 93 96 97 101 112 109 102 106
120 123 119 118 119 124 131 135 134 131 127 123 120 117 113 110 107 104 101 98 95 90 84 80 80 79 79 78 78 81 85 91 97 104 107 101 96 92 94 106 101 109 111
118 123 120 115 115 117 123 129 130 129 128 126 123 120 118 115 112 110 106 102 98 93 89 86 84 83 83 83 84 88 92 99 113 128 135 117 104 91 92 99 106 112 111
122 128 120 116 113 114 116 121 125 127 126 126 124 123 122 120 119 116 112 108 103 99 97 93 90 88 88 87 87 92 96 108 135 166 170 127 117 102 102 108 114 114 114
118 117 119 119 116 114 114 116 120 125 126 126 127 126 125 124 123 121 120 116 112 108 105 103 100 98 95 93 91 95 97 94 245 238 136 102 100 115 114 115 118 120 119
121 121 122 121 119 117 116 117 120 124 126 127 128 129 128 128 130 129 128 127 124 122 118 115 112 111 108 103 101 101 44 316 288 253 133 119 116 125 123 123 124 124 123
123 123 127 125 123 122 121 121 121 123 126 128 131 133 134 136 137 136 135 130 128 129 126 124 123 123 121 118 118 110 310 304 273 274 124 115 125 133 131 132 132 130 129
125 125 127 128 127 127 127 127 128 129 131 135 138 141 142 143 143 143 142 138 133 133 132 134 135 138 141 147 162 233 289 295 288 254 120 120 138 141 140 139 140 141 141
124 128 136 136 134 134 135 137 139 140 143 145 148 151 157 163 166 167 164 161 153 148 148 151 157 160 168 179 196 229 267 287 293 257 128 131 146 146 147 149 150 152 152
126 132 139 141 141 147 148 151 153 155 156 159 161 169 177 186 192 193 186 179 174 168 170 174 181 184 191 202 210 224 248 273 263 239 135 145 153 153 155 157 161 162 162
127 133 142 139 148 157 158 157 164 167 171 174 176 188 199 210 204 201 201 172 186 188 190 194 200 203 207 215 217 220 233 249 247 211 140 149 160 160 162 166 170 172 174
126 135 134 137 148 160 152 150 173 174 170 189 174 178 201 234 251 173 163 172 186 201 206 208 212 215 219 221 213 213 229 238 254 206 151 157 166 167 168 173 178 181 182
126 125 126 123 132 136 124 157 162 153 155 180 158 166 161 285 317 43 158 174 195 210 216 200 209 228 227 225 193 194 231 250 244 225 156 164 168 171 172 177 184 188 189
129 115 118 120 123 93 88 112 130 124 142 136 135 142 110 96 6 3 333 256 212 213 203 192 204 236 257 268 240 216 233 250 266 140 156 167 172 176 178 182 188 194 195
118 110 103 108 103 92 77 25 66 74 89 101 111 111 110 163 130 334 301 310 298 287 255 229 233 256 271 280 273 255 247 251 262 246 156 172 179 185 187 191 195 199 201
124 108 105 107 109 108 101 65 14 21 82 77 93 111 136 135 111 268 276 277 286 286 255 238 254 256 264 263 267 274 274 270 264 248 190 187 190 193 197 200 203 204 204
118 112 116 121 115 108 101 90 103 148 110 118 125 125 104 97 121 284 263 250 256 254 241 224 243 253 251 253 251 255 253 252 254 244 233 207 199 205 208 209 209 207 206
120 117 120 117 114 116 112 125 143 85 114 135 125 113 94 93 123 269 265 230 240 248 236 226 215 247 272 276 272 262 252 243 244 240 235 226 219 220 214 216 214 211 209
118 119 117 106 117 131 134 149 151 121 115 128 106 98 88 25 12 306 287 280 268 277 278 291 76 269 273 269 264 251 247 243 239 242 235 231 226 223 216 214 214 212 213
118 123 125 121 126 141 135 157 146 119 155 132 109 115 125 259 359 327 265 261 304 288 276 317 308 277 264 256 272 283 261 250 237 237 236 233 226 225 222 220 208 215 217
136 139 140 135 135 141 128 143 117 93 312 194 157 153 148 189 351 301 320 339 276 284 310 302 304 295 281 263 269 279 268 252 237 226 225 231 230 228 222 215 206 205 213
148 145 144 152 156 159 121 105 124 354 292 280 68 118 137 170 291 285 326 303 312 321 289 272 268 283 294 300 294 290 291 284 270 252 221 218 229 228 228 228 214 208 213
154 158 155 146 137 136 131 197 300 217 271 308 355 144 134 298 274 302 308 299 321 311 301 309 279 267 276 295 286 283 290 297 329 308 301 258 231 228 236 237 226 216 218
158 153 139 138 133 128 138 359 329 308 320 340 350 31 27 301 282 273 268 284 307 306 310 297 311 313 289 288 289 275 262 272 286 307 310 299 268 242 244 255 259 238 227
157 150 146 138 134 132 135 53 336 338 348 358 2 354 333 292 267 257 242 238 289 289 304 316 323 305 299 292 296 301 296 282 241 249 280 291 296 276 250 238 235 234 228
151 146 140 136 138 138 145 88 27 351 346 330 322 313 319 308 292 299 309 66 302 305 317 310 304 291 281 290 297 297 296 290 280 270 275 286 286 274 269 260 236 221 220